Mobile, AL

12:26 AM CDT on October 21, 2017 (GMT -0500)
Mobile Regional

Weather History for KMOB - April, 2014

Change the Weather History Date:

Friday, April 4, 2014

  Actual Average Record
Temperature  
Mean Temperature 71 °F 64 °F  
Max Temperature 78 °F 75 °F 90 °F (1967)
Min Temperature 64 °F 53 °F 33 °F (1987)
Degree Days  
Heating Degree Days 0 3  
Month to date heating degree days 2 15  
Since 1 July heating degree days 1981 1646  
Cooling Degree Days 6 2  
Month to date cooling degree days 18 8  
Year to date cooling degree days 31 63  
Growing Degree Days 21 (Base 50)    
Moisture  
Dew Point 66 °F    
Average Humidity 85    
Maximum Humidity 100    
Minimum Humidity 69    
Precipitation  
Precipitation 0.38 in 0.17 in 5.46 in (1911)
Month to date precipitation 0.38 0.71  
Year to date precipitation 14.00 17.62  
Snow  
Snow 0.00 in 0.00 in - ()
Month to date snowfall 0.0 0.0  
Since 1 July snowfall 1.3 0.2  
Snow Depth 0.00 in    
Sea Level Pressure  
Sea Level Pressure 29.99 in    
Wind  
Wind Speed 6 mph (SSE)    
Max Wind Speed 24 mph    
Max Gust Speed 33 mph    
Visibility 7 miles    
Events Rain , Thunderstorm    
T = Trace of Precipitation, MM = Missing Value Source: NWS Daily Summary

Daily Weather History Graph

Daily Weather History Graph

Search for Another Location

Airport or City:

Trip Planner

Search our weather history database for the weather conditions in past years. The results will help you decide how hot, cold, wet, or windy it might be!

Date:

Astronomy

Apr. 04, 2014 Rise Set
Actual Time 6:38 AM CDT 7:13 PM CDT
Civil Twilight 6:14 AM CDT 7:38 PM CDT
Nautical Twilight 5:45 AM CDT 8:06 PM CDT
Astronomical Twilight 5:16 AM CDT 8:36 PM CDT
Moon 10:09 AM CDT (4/4) No Moon Set
Length of Visible Light 13h 24m
Length of Day
12h 35m
Waxing Crescent, 25% of the Moon is Illuminated
Apr 4
Waxing Crescent
Apr 7
First Quarter
Apr 15
Full
Apr 22
Last Quarter
Apr 29
New

Hourly Weather History & Observations

Time (CDT) Temp. Dew Point Humidity Pressure Visibility Wind Dir Wind Speed Gust Speed Precip Events Conditions
12:56 AM 66.9 °F 66.9 °F 100% 29.95 in 10.0 mi SSE 12.7 mph - N/A   Overcast
1:56 AM 66.9 °F 66.9 °F 100% 29.95 in 10.0 mi SSE 8.1 mph - N/A   Overcast
2:56 AM 66.9 °F 66.9 °F 100% 29.94 in 10.0 mi South 8.1 mph - N/A   Overcast
3:48 AM 66.9 °F 66.9 °F 100% 29.93 in 8.0 mi South 5.8 mph - N/A   Overcast
3:56 AM 66.9 °F 66.9 °F 100% 29.92 in 8.0 mi South 6.9 mph - N/A   Overcast
4:12 AM 66.9 °F 66.9 °F 100% 29.93 in 8.0 mi South 6.9 mph - N/A   Overcast
4:56 AM 68.0 °F 66.9 °F 96% 29.92 in 9.0 mi SSE 5.8 mph - N/A   Overcast
5:56 AM 66.9 °F 66.9 °F 100% 29.92 in 6.0 mi South 4.6 mph - N/A   Overcast
6:56 AM 68.0 °F 68.0 °F 100% 29.95 in 3.0 mi South 5.8 mph - N/A   Overcast
7:56 AM 69.1 °F 68.0 °F 96% 29.98 in 3.0 mi South 6.9 mph - N/A   Overcast
8:41 AM 70.0 °F 68.0 °F 93% 29.98 in 5.0 mi SSE 8.1 mph - N/A   Overcast
8:51 AM 71.6 °F 68.0 °F 88% 29.99 in 5.0 mi South 6.9 mph - N/A   Overcast
8:56 AM 70.0 °F 68.0 °F 93% 29.99 in 5.0 mi South 9.2 mph - N/A   Overcast
9:19 AM 71.1 °F 68.0 °F 90% 30.01 in 5.0 mi South 9.2 mph - N/A   Overcast
9:30 AM 71.1 °F 68.0 °F 90% 30.02 in 5.0 mi SSW 6.9 mph - N/A   Overcast
9:47 AM 72.0 °F 68.0 °F 87% 30.03 in 5.0 mi SSW 8.1 mph - N/A   Overcast
9:56 AM 73.0 °F 68.0 °F 84% 30.02 in 5.0 mi South 6.9 mph - N/A   Haze
10:10 AM 73.9 °F 68.0 °F 82% 30.03 in 7.0 mi SSW 4.6 mph - N/A   Mostly Cloudy
10:40 AM 75.9 °F 66.9 °F 74% 30.04 in 7.0 mi South 8.1 mph - N/A   Mostly Cloudy
10:56 AM 75.0 °F 66.0 °F 73% 30.04 in 7.0 mi SW 6.9 mph - N/A   Mostly Cloudy
11:10 AM 75.9 °F 66.0 °F 71% 30.05 in 7.0 mi SW 9.2 mph - N/A   Overcast
11:56 AM 77.0 °F 66.0 °F 69% 30.04 in 7.0 mi SW 3.5 mph - N/A   Overcast
12:43 PM 75.9 °F 66.0 °F 71% 30.03 in 10.0 mi South 10.4 mph - N/A Thunderstorm Overcast
12:56 PM 75.9 °F 66.0 °F 71% 30.03 in 7.0 mi SSW 5.8 mph - N/A Thunderstorm Thunderstorm
1:10 PM 77.0 °F 66.9 °F 71% 30.05 in 10.0 mi Variable 4.6 mph - N/A Thunderstorm Mostly Cloudy
1:46 PM 66.0 °F 61.0 °F 84% 30.02 in 7.0 mi NNE 6.9 mph 19.6 mph 0.01 in Rain , Thunderstorm Rain
1:56 PM 64.9 °F 62.1 °F 90% 30.01 in 7.0 mi Variable 3.5 mph - 0.11 in Rain , Thunderstorm Heavy Thunderstorms and Rain
2:15 PM 64.9 °F 63.0 °F 93% 30.00 in 3.0 mi WSW 3.5 mph - 0.03 in Rain Light Rain
2:56 PM 68.0 °F 66.2 °F 94% 29.91 in 3.0 mi East 10.4 mph - N/A   Overcast
3:56 PM 72.0 °F 66.9 °F 84% 29.94 in 8.0 mi East 3.5 mph - N/A   Mostly Cloudy
4:56 PM 75.0 °F 66.0 °F 73% 29.96 in 10.0 mi SSE 9.2 mph - N/A   Scattered Clouds
5:56 PM 72.0 °F 64.0 °F 76% 29.97 in 8.0 mi SE 10.4 mph - 0.00 in   Mostly Cloudy
6:48 PM 71.1 °F 64.0 °F 78% 29.98 in 10.0 mi SSE 6.9 mph - N/A Thunderstorm Thunderstorm
6:56 PM 71.1 °F 64.0 °F 78% 29.98 in 8.0 mi South 6.9 mph - N/A Thunderstorm Thunderstorm
7:15 PM 70.0 °F 63.0 °F 78% 29.98 in 10.0 mi SSE 6.9 mph - N/A   Mostly Cloudy
7:56 PM 66.9 °F 63.0 °F 87% 29.97 in 8.0 mi SE 5.8 mph - N/A   Scattered Clouds
8:56 PM 66.0 °F 63.0 °F 90% 29.98 in 10.0 mi Calm Calm - N/A   Mostly Cloudy
9:56 PM 64.9 °F 64.0 °F 97% 29.99 in 10.0 mi North 5.8 mph - N/A   Mostly Cloudy
10:13 PM 64.9 °F 64.0 °F 97% 30.00 in 10.0 mi North 4.6 mph - N/A   Overcast
10:56 PM 66.0 °F 64.9 °F 96% 29.99 in 10.0 mi NE 5.8 mph - N/A   Overcast
11:17 PM 66.9 °F 64.9 °F 93% 30.01 in 10.0 mi NNE 6.9 mph - N/A Thunderstorm Overcast
11:24 PM 66.9 °F 64.9 °F 93% 30.01 in 10.0 mi North 6.9 mph - N/A   Overcast
11:30 PM 66.9 °F 66.0 °F 97% 30.02 in 10.0 mi North 4.6 mph - 0.00 in Rain , Thunderstorm Light Thunderstorms and Rain
11:56 PM 66.0 °F 66.0 °F 100% 30.03 in 2.0 mi NNW 4.6 mph - 0.11 in Rain , Thunderstorm Heavy Thunderstorms and Rain